02:12
Airports
History
Links
Donate
Help keep this website running!
PayPal
Bitcoin
This page is community maintained. The information is intended for PC simulator navigation or reference.
Always use approved charts for navigation.
NLWW
WALLISEdited 07-Mar-2012
WALLIS (NLWW)
Alele, Wallis, Wallis and Futuna
(C)
Lat/Lng:13° 14' 17.8" S / 176° 11' 57.21" W
-13.238277 / -176.199226
Elevation:79'ft / 24mMSL
ID / ICAO:NLWW
Runways:1
Longest:08-26
Asphalt 2,092m / 6,864ft
Controlled:Yes
Beacon:White-Green
(Edited 2012-03-07) [ Sign in to Edit ]
METAR23:00 GMT 2018-02-07
Altimeter: 29.62
Visibility: 6.2 statute miles
Wind: 12 knots (from 300°)
Temp: 28°c / 82°f
Humidity: 83.8%

METAR: NLWW 072300Z 30012KT 9999 SCT013TCU SCT023 BKN160 28/25 Q1003 TEMPO 4000 SHRA BKN014 FEW018CB

(Powered by phpweather)
Airport Radio Frequencies
Tower: 118.3
Runway 08 / 26
Dimensions:2092.1 x 45.1m 6864' x 148'ft
Surface:Asphalt
Edge Lights:Low intensity
Runway 08 [A]Runway 26 [B]
Heading:089°TH 269°TH
Lat:
Lng:
13° 14' 17.8"S
176° 12' 32.11"W
13° 14' 17.79"S
176° 11' 22.32"W
TDZ:Yes, lighted
User Notes and Comments
13° 14' 17.8" S / 176° 11' 57.21" W
Distance To
Airport ID:
Nearby Airports
4 Point Vele 145.6 NM
NLWF ( WX ) WSW 239°
4 Niuafo'ou 165.6 NM
NFTO SSE 166°
(U) Asau 240.8 NM
NSAU E 94°
4 NIUATOPUTAPU 248.4 NM
NFTP SE 139°
(U) Maota 267.1 NM
NSMA E 97°
(C) Faleolo International 284.5 NM
NSFA ( WX ) E 98°
(U) Fagalii 302.5 NM
NSFI E 98°
VFR Chart
Flight Planning at SkyVector.com